EW0214 Weather Reports


Display with metric or nautical units.
time (UTC)temp
F
wind
direction
speed
MPH
gust
MPH
rain 1hr
in
rain 24hr
in
rain mn
in
humidity
%
barometer
mb
20240530044042 79 137 5.0 12.0 0.00 0.21 0.15 78 1015.6
20240530043308 80 146 4.0 11.0 0.00 0.22 0.15 77 1015.6
20240530043042 80 148 4.0 11.0 0.00 0.22 0.15 77 1015.6
20240530042539 80 120 4.0 9.0 0.00 0.22 0.15 76 1015.5
20240530041810 80 150 4.0 7.0 0.00 0.22 0.15 75 1015.5
20240530041540 80 148 4.0 15.0 0.00 0.23 0.15 74 1015.4
20240530041042 80 137 4.0 15.0 0.00 0.23 0.15 74 1015.3
20240530040309 80 156 4.0 9.0 0.00 0.23 0.15 74 1015.4
20240530035810 80 125 3.0 9.0 0.00 0.23 0.15 73 1015.4
20240530035310 81 165 2.0 8.0 0.00 0.23 0.15 72 1015.3
20240530034809 81 109 2.0 7.0 0.00 0.23 0.15 71 1015.3
20240530034303 81 127 2.0 4.0 0.00 0.23 0.15 71 1015.1
20240530033758 81 127 1.0 4.0 0.00 0.23 0.15 72 1015.1
20240530033753 81 123 1.0 4.0 0.00 0.23 0.15 72 1015.1
20240530032745 81 123 2.0 4.0 0.00 0.23 0.15 71 1015.0
20240530032245 81 126 2.0 4.0 0.00 0.23 0.15 71 1014.9
20240530031745 81 127 1.0 4.0 0.00 0.23 0.15 71 1014.8
20240530031245 81 131 1.0 4.0 0.00 0.23 0.15 71 1014.9
20240530030743 81 133 1.0 4.0 0.00 0.23 0.15 70 1015.0
20240530030243 82 135 1.0 4.0 0.00 0.23 0.15 70 1015.2
20240530030015 82 134 1.0 6.0 0.00 0.23 0.15 70 1015.1
20240530025243 82 114 1.0 6.0 0.00 0.23 0.15 70 1015.0
20240530024742 82 107 1.0 4.0 0.00 0.23 0.15 70 1015.0
20240530024242 82 105 0.0 4.0 0.00 0.23 0.15 69 1015.1
20240530023742 82 105 0.0 4.0 0.00 0.23 0.15 69 1015.1
20240530023242 82 97 0.0 3.0 0.00 0.23 0.15 69 1015.0
20240530022739 82 96 0.0 4.0 0.00 0.23 0.15 69 1014.9
20240530022237 82 94 1.0 4.0 0.00 0.23 0.15 69 1014.8
20240530021738 82 92 1.0 4.0 0.00 0.23 0.15 68 1014.8
20240530021235 83 92 1.0 4.0 0.00 0.23 0.15 68 1014.7
20240530020735 83 90 1.0 6.0 0.00 0.23 0.15 67 1014.7
20240530020233 83 89 2.0 7.0 0.00 0.23 0.15 67 1014.6
20240530015733 83 168 1.0 7.0 0.00 0.23 0.15 67 1014.5
20240530015227 83 75 1.0 4.0 0.00 0.23 0.15 67 1014.5
20240530014721 83 83 0.0 5.0 0.00 0.23 0.15 68 1014.3
20240530014445 83 83 1.0 5.0 0.00 0.23 0.15 67 1014.3
20240530013708 83 88 1.0 4.0 0.00 0.23 0.15 66 1014.2
20240530013435 84 89 1.0 4.0 0.00 0.23 0.15 66 1014.2
20240530012657 84 89 1.0 4.0 0.00 0.23 0.15 65 1014.2
20240530012423 84 125 1.0 4.0 0.00 0.23 0.15 64 1014.3
20240530011645 84 123 1.0 4.0 0.00 0.23 0.15 64 1014.2
20240530011139 84 121 1.0 5.0 0.00 0.23 0.15 65 1014.1
20240530010904 85 132 2.0 5.0 0.00 0.23 0.15 64 1014.3
20240530010127 85 138 2.0 5.0 0.00 0.23 0.15 63 1014.2
20240530005621 85 132 2.0 7.0 0.00 0.23 0.15 64 1014.1
20240530005347 85 129 2.0 7.0 0.00 0.23 0.15 63 1014.0
20240530004609 85 157 2.0 6.0 0.00 0.23 0.15 63 1014.0
20240530004102 85 135 1.0 6.0 0.00 0.23 0.15 63 1013.9
20240530003556 86 153 2.0 6.0 0.00 0.23 0.15 63 1014.0
20240530003051 86 123 2.0 6.0 0.00 0.23 0.15 62 1014.0
20240530002546 86 87 2.0 4.0 0.00 0.23 0.15 63 1014.1
20240530002311 86 116 2.0 6.0 0.00 0.23 0.15 62 1014.1
20240530001805 86 135 3.0 8.0 0.00 0.23 0.15 61 1014.1
20240530001028 86 92 2.0 8.0 0.00 0.23 0.15 60 1014.2
20240530000521 86 109 2.0 6.0 0.00 0.23 0.15 60 1014.3
20240530000015 87 64 2.0 6.0 0.00 0.23 0.15 61 1014.3
20240529235509 87 153 2.0 7.0 0.00 0.23 0.15 60 1014.3
20240529235003 87 146 2.0 7.0 0.00 0.23 0.15 59 1014.3
20240529234457 87 156 2.0 8.0 0.00 0.23 0.15 60 1014.3
20240529233951 87 123 3.0 8.0 0.00 0.23 0.15 58 1014.3
20240529233445 87 84 2.0 8.0 0.00 0.23 0.15 59 1014.4
20240529232941 87 117 3.0 8.0 0.00 0.23 0.15 59 1014.5
20240529232433 87 106 3.0 7.0 0.00 0.23 0.15 58 1014.6
20240529231933 87 149 3.0 8.0 0.00 0.23 0.15 57 1014.7
20240529231430 87 159 3.0 8.0 0.00 0.23 0.15 58 1014.7
20240529230929 87 107 3.0 8.0 0.00 0.23 0.15 57 1014.7
20240529230428 87 161 4.0 10.0 0.00 0.23 0.15 58 1014.6
20240529225928 87 150 3.0 10.0 0.00 0.23 0.15 58 1014.7
20240529225427 87 150 3.0 9.0 0.00 0.23 0.15 59 1014.7
20240529224933 88 145 2.0 7.0 0.00 0.23 0.15 59 1014.8
20240529224929 88 44 3.0 9.0 0.00 0.23 0.15 58 1014.8
20240529223930 88 167 2.0 7.0 0.00 0.23 0.15 56 1014.8
20240529223427 88 140 2.0 7.0 0.00 0.23 0.15 55 1014.8
20240529222925 88 76 1.0 7.0 0.00 0.23 0.15 56 1014.8
20240529222653 88 67 2.0 7.0 0.00 0.23 0.15 57 1014.8
20240529221920 88 127 2.0 5.0 0.00 0.23 0.15 56 1014.8
20240529221419 88 114 1.0 4.0 0.00 0.23 0.15 55 1014.9
20240529220921 88 127 1.0 4.0 0.00 0.23 0.15 57 1014.9
20240529220421 88 144 1.0 4.0 0.00 0.23 0.15 54 1014.9
20240529215919 88 146 1.0 7.0 0.00 0.23 0.15 54 1014.9
20240529215417 88 160 2.0 8.0 0.00 0.23 0.15 57 1014.9
20240529214918 88 146 1.0 8.0 0.00 0.23 0.15 57 1014.9
20240529214412 88 137 1.0 4.0 0.00 0.23 0.15 57 1015.0
20240529213907 88 137 2.0 4.0 0.00 0.23 0.15 55 1015.1
20240529213409 88 140 2.0 4.0 0.00 0.23 0.15 55 1015.2
20240529212909 89 28 2.0 6.0 0.00 0.23 0.15 53 1015.1
20240529212904 89 136 2.0 5.0 0.00 0.23 0.15 55 1015.2
20240529211902 89 145 3.0 8.0 0.00 0.23 0.15 53 1015.3
20240529211402 89 170 2.0 8.0 0.00 0.23 0.15 52 1015.3
20240529210907 90 171 1.0 5.0 0.00 0.23 0.15 52 1015.3
20240529210901 89 170 1.0 5.0 0.00 0.23 0.15 53 1015.3
20240529210133 89 136 2.0 4.0 0.00 0.23 0.15 53 1015.4
20240529205402 88 134 1.0 4.0 0.00 0.23 0.15 54 1015.5
20240529204903 89 135 1.0 3.0 0.00 0.23 0.15 56 1015.4
20240529204357 89 136 2.0 5.0 0.00 0.23 0.15 58 1015.4
20240529203857 89 143 1.0 8.0 0.00 0.23 0.15 54 1015.5
20240529203357 89 148 0.0 8.0 0.00 0.23 0.15 54 1015.5
20240529202858 89 90 1.0 4.0 0.00 0.23 0.15 54 1015.5
20240529202400 89 89 1.0 4.0 0.00 0.23 0.15 56 1015.5
20240529201858 88 89 1.0 4.0 0.00 0.23 0.15 60 1015.7
20240529201359 87 108 0.0 2.0 0.00 0.23 0.15 57 1015.7
20240529200857 88 109 0.0 2.0 0.00 0.23 0.15 59 1015.7
20240529200358 87 134 1.0 3.0 0.00 0.23 0.15 56 1015.8
20240529200127 88 134 1.0 3.0 0.00 0.23 0.15 57 1015.9
20240529195355 89 134 1.0 4.0 0.00 0.23 0.15 56 1015.8
20240529194853 89 130 2.0 4.0 0.00 0.23 0.15 53 1015.7
20240529194355 88 128 2.0 4.0 0.00 0.23 0.15 55 1015.7
20240529194126 88 126 2.0 9.0 0.00 0.23 0.15 56 1015.9
20240529193354 89 128 1.0 9.0 0.00 0.23 0.15 54 1015.9
20240529192853 89 184 1.0 6.0 0.00 0.23 0.15 54 1016.0
20240529192354 89 185 1.0 6.0 0.00 0.23 0.15 52 1016.0
20240529191850 89 180 0.0 7.0 0.00 0.23 0.15 56 1016.1
20240529191349 87 11 1.0 7.0 0.00 0.23 0.15 59 1016.2
20240529190851 87 119 1.0 4.0 0.00 0.23 0.15 59 1016.1
20240529190351 86 119 1.0 4.0 0.00 0.23 0.15 58 1016.2
20240529185852 87 116 1.0 7.0 0.00 0.23 0.15 57 1016.4
20240529185622 89 123 1.0 6.0 0.00 0.23 0.15 56 1016.3
20240529184845 91 88 2.0 5.0 0.00 0.23 0.15 56 1016.4
20240529184608 90 78 2.0 7.0 0.00 0.23 0.15 56 1016.4
20240529183832 89 95 2.0 7.0 0.00 0.23 0.15 55 1016.6
20240529183326 88 44 3.0 8.0 0.00 0.23 0.15 57 1016.6
20240529182820 89 22 2.0 8.0 0.00 0.23 0.15 57 1016.6
20240529182314 88 159 2.0 8.0 0.00 0.23 0.15 57 1016.5
20240529181808 87 152 3.0 12.0 0.00 0.23 0.15 59 1016.7
20240529181303 87 157 2.0 12.0 0.00 0.23 0.15 58 1016.6
20240529181027 87 169 2.0 6.0 0.00 0.23 0.15 54 1016.8
20240529180249 87 169 2.0 7.0 0.00 0.23 0.15 57 1016.8
20240529180015 87 161 3.0 7.0 0.00 0.23 0.15 57 1016.8
20240529175238 88 24 2.0 6.0 0.00 0.23 0.15 59 1016.8
20240529174732 88 122 2.0 8.0 0.00 0.23 0.15 58 1016.8
20240529174227 87 153 3.0 8.0 0.00 0.23 0.15 60 1016.9
20240529173720 86 99 2.0 6.0 0.00 0.23 0.15 60 1016.8
20240529173447 87 143 2.0 6.0 0.00 0.23 0.15 59 1016.8
20240529172709 86 157 2.0 9.0 0.00 0.23 0.15 61 1016.8
20240529172203 85 137 2.0 9.0 0.00 0.23 0.15 60 1017.0
20240529171656 85 176 3.0 7.0 0.00 0.23 0.15 57 1017.0
20240529171150 86 152 3.0 7.0 0.00 0.23 0.15 59 1017.1
20240529170914 86 188 2.0 6.0 0.00 0.23 0.15 59 1017.1
20240529170410 86 141 2.0 8.0 0.00 0.23 0.15 59 1017.0
20240529165632 86 17 3.0 8.0 0.00 0.23 0.15 61 1017.1
20240529165128 86 69 2.0 6.0 0.00 0.23 0.15 61 1017.3
20240529164852 86 153 2.0 6.0 0.00 0.23 0.15 58 1017.4
20240529164114 86 161 2.0 6.0 0.00 0.23 0.15 64 1017.3
20240529163608 85 173 1.0 6.0 0.00 0.23 0.15 62 1017.4
20240529163335 84 90 2.0 5.0 0.00 0.23 0.15 64 1017.3
20240529162556 84 53 2.0 5.0 0.00 0.23 0.15 65 1017.4
20240529162051 84 57 2.0 5.0 0.00 0.23 0.15 62 1017.6
20240529161546 84 192 1.0 6.0 0.00 0.23 0.15 66 1017.6
20240529161038 83 192 2.0 6.0 0.00 0.23 0.15 64 1017.8
20240529160533 83 38 2.0 6.0 0.00 0.23 0.15 65 1018.0
20240529160026 83 29 3.0 8.0 0.00 0.23 0.15 66 1018.2
20240529155520 83 105 2.0 8.0 0.00 0.23 0.15 65 1018.4
20240529155014 83 86 1.0 8.0 0.00 0.23 0.15 66 1018.5
20240529154509 82 53 1.0 4.0 0.00 0.23 0.15 67 1018.7
20240529154003 82 38 1.0 5.0 0.00 0.23 0.15 69 1018.8
20240529153457 81 45 1.0 5.0 0.00 0.23 0.15 70 1018.8
20240529152950 81 62 3.0 13.0 0.00 0.23 0.15 69 1018.9
20240529152715 81 11 3.0 13.0 0.00 0.23 0.15 69 1018.9
20240529151938 81 350 2.0 8.0 0.00 0.23 0.15 70 1018.9
20240529151703 80 25 3.0 9.0 0.00 0.23 0.15 71 1018.8
20240529150925 80 26 3.0 9.0 0.00 0.23 0.15 70 1018.8
20240529150421 80 17 3.0 8.0 0.00 0.23 0.15 72 1018.9
20240529150144 79 80 3.0 10.0 0.00 0.23 0.15 73 1018.9
20240529145640 78 17 3.0 10.0 0.00 0.23 0.15 74 1019.0
20240529144902 78 64 3.0 10.0 0.00 0.23 0.15 74 1018.9
20240529144356 78 24 2.0 7.0 0.00 0.23 0.15 75 1018.9
20240529143850 77 49 2.0 6.0 0.00 0.23 0.15 75 1018.9
20240529143344 77 75 2.0 6.0 0.00 0.23 0.15 75 1018.9
20240529142839 77 186 3.0 5.0 0.00 0.23 0.15 76 1018.9
20240529142834 76 32 2.0 7.0 0.00 0.23 0.15 76 1019.0
20240529141826 76 18 2.0 7.0 0.00 0.23 0.15 77 1018.9
20240529141319 76 28 2.0 7.0 0.00 0.23 0.15 78 1019.0
20240529140814 76 5 1.0 7.0 0.00 0.23 0.15 78 1019.0
20240529140308 75 91 0.0 3.0 0.00 0.23 0.15 81 1019.0
20240529140033 75 88 1.0 3.0 0.00 0.23 0.15 80 1019.0
20240529135256 74 35 2.0 5.0 0.00 0.23 0.15 81 1018.9
20240529134751 74 30 3.0 8.0 0.00 0.23 0.15 83 1018.9
20240529134249 74 19 3.0 8.0 0.00 0.23 0.15 84 1019.0
20240529133746 73 0 1.0 8.0 0.00 0.23 0.15 86 1018.9
20240529133247 72 355 0.0 0.0 0.00 0.23 0.15 86 1018.9
20240529132748 72 355 0.0 0.0 0.00 0.23 0.15 87 1019.0
20240529132515 72 355 0.0 0.0 0.00 0.23 0.15 88 1019.1
20240529131744 72 355 0.0 0.0 0.00 0.23 0.15 88 1019.2
20240529131243 71 355 0.0 0.0 0.00 0.23 0.15 89 1019.2
20240529130744 71 355 0.0 0.0 0.00 0.23 0.15 89 1019.2
20240529130241 71 355 0.0 0.0 0.00 0.23 0.15 89 1019.2
20240529130013 71 355 0.0 0.0 0.00 0.23 0.15 90 1019.2
20240529125238 70 355 0.0 0.0 0.00 0.23 0.15 90 1019.0
20240529124737 70 355 0.0 0.0 0.00 0.23 0.15 90 1018.9
20240529124240 70 355 0.0 0.0 0.00 0.23 0.15 90 1018.6
20240529123736 70 355 0.0 0.0 0.00 0.23 0.15 90 1018.3
20240529123506 70 355 0.0 0.0 0.00 0.23 0.15 90 1018.3
20240529122734 70 355 0.0 0.0 0.00 0.23 0.15 90 1018.3
20240529122237 70 355 0.0 0.0 0.00 0.23 0.15 90 1018.3
20240529121729 70 355 0.0 0.0 0.00 0.23 0.15 90 1018.4
20240529121230 70 355 0.0 0.0 0.00 0.23 0.15 89 1018.5
20240529120730 69 355 0.0 1.0 0.00 0.23 0.15 89 1018.3
20240529120229 69 355 0.0 1.0 0.00 0.23 0.15 89 1018.2
20240529115730 69 355 0.0 1.0 0.00 0.23 0.15 89 1018.1
20240529115228 69 355 0.0 1.0 0.00 0.23 0.15 89 1018.1
20240529114730 69 355 0.0 1.0 0.00 0.23 0.15 89 1018.0
20240529114229 69 355 0.0 0.0 0.00 0.23 0.15 88 1018.2
20240529113732 69 355 0.0 0.0 0.00 0.23 0.15 88 1018.3
20240529113226 69 355 0.0 0.0 0.00 0.23 0.15 88 1018.3
20240529112725 70 355 0.0 1.0 0.00 0.23 0.15 88 1018.3
20240529112230 70 355 0.0 2.0 0.00 0.23 0.15 88 1018.3
20240529112225 70 355 0.0 2.0 0.00 0.23 0.15 88 1018.2
20240529111226 70 355 0.0 2.0 0.00 0.23 0.15 87 1018.3
20240529110724 71 355 0.0 4.0 0.00 0.23 0.15 88 1018.3
20240529110225 70 355 2.0 8.0 0.00 0.23 0.15 88 1018.3
20240529105725 70 355 3.0 8.0 0.00 0.23 0.15 87 1018.3
20240529105226 70 350 2.0 6.0 0.00 0.23 0.15 87 1018.3
20240529104719 70 346 1.0 3.0 0.00 0.23 0.15 87 1018.5
20240529104213 70 345 0.0 3.0 0.00 0.23 0.15 87 1018.6
20240529103707 71 345 0.0 3.0 0.00 0.23 0.15 88 1019.1
20240529103208 70 345 0.0 3.0 0.00 0.23 0.15 87 1019.2
20240529102708 70 345 0.0 1.0 0.00 0.23 0.15 87 1019.0
20240529102204 70 345 0.0 1.0 0.00 0.23 0.15 87 1018.8
20240529101704 71 345 0.0 1.0 0.00 0.23 0.15 86 1018.8
20240529101205 71 345 0.0 2.0 0.00 0.23 0.15 86 1018.8
20240529100702 71 345 0.0 2.0 0.00 0.23 0.15 85 1018.7
20240529100202 71 345 0.0 4.0 0.00 0.23 0.15 86 1018.7
20240529095704 71 345 1.0 5.0 0.00 0.23 0.15 85 1018.7
20240529095202 71 346 2.0 9.0 0.00 0.23 0.15 85 1018.4
20240529094700 71 342 3.0 9.0 0.00 0.23 0.15 85 1018.2
20240529094202 71 348 3.0 8.0 0.00 0.23 0.15 85 1018.3
20240529093700 71 355 2.0 8.0 0.00 0.23 0.15 85 1018.2
20240529093201 71 5 3.0 9.0 0.00 0.23 0.15 85 1018.1
20240529092659 72 13 3.0 9.0 0.00 0.23 0.15 85 1018.2
20240529092158 72 5 4.0 13.0 0.00 0.23 0.15 85 1018.2
20240529091656 72 328 3.0 13.0 0.00 0.23 0.15 85 1018.3
20240529091154 72 5 2.0 10.0 0.00 0.23 0.15 84 1018.3
20240529090650 72 339 2.0 10.0 0.00 0.23 0.15 84 1018.0
20240529090151 72 355 1.0 6.0 0.00 0.23 0.15 84 1017.9
20240529085645 72 345 2.0 7.0 0.00 0.23 0.15 84 1018.1
20240529085139 72 17 2.0 8.0 0.00 0.23 0.15 84 1017.6
20240529084633 72 355 2.0 8.0 0.00 0.23 0.15 84 1017.3
20240529084127 71 325 1.0 8.0 0.00 0.23 0.15 85 1017.2
20240529083621 71 0 1.0 4.0 0.00 0.23 0.15 84 1017.0
20240529083115 71 0 1.0 4.0 0.00 0.23 0.15 84 1017.0
20240529082614 71 5 1.0 4.0 0.00 0.23 0.15 86 1016.8
20240529082059 71 5 0.0 4.0 0.00 0.23 0.15 86 1016.4
20240529081554 71 5 0.0 2.0 0.00 0.23 0.15 87 1016.4
20240529081048 71 5 0.0 2.0 0.00 0.23 0.15 87 1016.3
20240529080542 71 5 0.0 0.0 0.00 0.23 0.15 86 1016.3
20240529080035 71 5 0.0 0.0 0.00 0.23 0.15 86 1016.1
20240529075529 72 5 0.0 1.0 0.00 0.23 0.15 85 1016.0
20240529075023 72 5 0.0 5.0 0.00 0.23 0.15 85 1016.1
20240529074749 72 5 1.0 5.0 0.00 0.23 0.15 84 1016.3
20240529074011 72 5 1.0 5.0 0.00 0.23 0.15 84 1016.2
20240529073505 72 5 2.0 11.0 0.00 0.23 0.15 84 1016.4
20240529072959 72 5 3.0 11.0 0.00 0.23 0.15 84 1016.2
20240529072454 72 19 3.0 10.0 0.00 0.23 0.15 83 1016.1
20240529072449 72 13 4.0 11.0 0.00 0.23 0.15 83 1016.5
20240529071441 72 325 3.0 11.0 0.01 0.23 0.15 82 1016.4
20240529070935 73 340 4.0 14.0 0.01 0.23 0.15 82 1016.0
20240529070430 73 144 6.0 16.0 0.02 0.23 0.15 82 1014.8
20240529065923 72 136 7.0 16.0 0.02 0.23 0.15 83 1014.3
20240529065416 72 128 6.0 16.0 0.02 0.23 0.15 84 1013.9
20240529064911 72 171 7.0 17.0 0.03 0.23 0.15 85 1013.6
20240529064405 71 165 8.0 17.0 0.03 0.23 0.15 85 1013.3
20240529063900 71 143 10.0 22.0 0.03 0.23 0.15 86 1012.4
20240529063354 71 136 15.0 30.0 0.03 0.23 0.15 87 1011.4
20240529062847 70 120 19.0 32.0 0.03 0.23 0.15 88 1010.6
20240529062341 70 144 17.0 32.0 0.04 0.23 0.15 88 1010.4
20240529061835 70 215 12.0 29.0 0.04 0.22 0.15 89 1011.8
20240529061601 70 130 11.0 21.0 0.08 0.22 0.14 89 1014.0
20240529061056 70 150 9.0 24.0 0.12 0.22 0.14 89 1014.8
20240529060820 71 142 9.0 24.0 0.13 0.21 0.13 89 1015.8
20240529055811 71 159 10.0 25.0 0.13 0.21 0.13 89 1015.3
20240529055305 71 144 10.0 25.0 0.15 0.21 0.13 89 1014.9
20240529054800 70 194 10.0 22.0 0.16 0.20 0.12 89 1014.6
20240529054253 70 112 10.0 22.0 0.17 0.20 0.12 89 1014.5
20240529053747 71 149 9.0 20.0 0.18 0.20 0.12 89 1014.9
20240529053240 71 151 7.0 14.0 0.19 0.20 0.12 88 1015.7
20240529052735 71 155 5.0 13.0 0.18 0.19 0.12 88 1017.0
20240529052229 71 150 4.0 8.0 0.18 0.19 0.11 88 1018.0
20240529051724 71 150 3.0 9.0 0.18 0.18 0.10 88 1018.8
20240529051218 72 129 1.0 9.0 0.12 0.12 0.06 87 1019.3
20240529050711 72 175 1.0 5.0 0.09 0.09 0.02 87 1019.9
20240529050205 72 173 1.0 6.0 0.08 0.08 0.00 87 1020.2
20240529045931 73 319 1.0 6.0 0.07 0.07 0.07 86 1020.9
20240529045153 73 224 1.0 8.0 0.06 0.06 0.06 86 1021.3
20240529044650 73 186 1.0 6.0 0.04 0.04 0.04 85 1021.3